Home   Weather   Merida   Past weeks

Flag for Mexico Past Weather in Merida, Yucatán, Mexico — Yesterday and Last 2 Weeks

Now
81 °F

Scattered clouds.


Feels Like: 81 °F
Forecast: 62 / 82 °F
Wind: 18 mph from Northwest

Location: Aerop. Internacional Merida - Yuc

Current Time: Jan 23, 2017 at 1:06:05 pm

Latest Report: Jan 23, 2017 at 11:44 am


Visibility: 7 mi

Pressure: 30.00 "Hg

Humidity: 45%

Dew Point: 57 °F

Location of MeridaLocation

Past Weather in Merida — Graph

°F

Merida Temperature Yesterday

Maximum temperature yesterday: 97 °F (at 12:49 pm)
Minimum temperature yesterday: 66 °F (at 11:48 pm)
Average temperature yesterday: 79 °F

High & Low Weather Summary for the Past Weeks

 TemperatureHumidityPressure
High97 °F (Jan 21, 2:44 pm)94% (Jan 10, 6:48 am)30.43 "Hg (Jan 10, 6:48 am)
Low61 °F (Jan 11, 5:49 am)31% (Jan 11, 2:45 pm)29.66 "Hg (Jan 21, 4:46 pm)
Average76 °F68%30.05 "Hg
* Reported Jan 8 11:44 am — Jan 23 11:44 am, Merida, Weather by CustomWeather, © 2017

Note: Actual official high and low records may vary slightly from our data, if they occured in-between our weather recording intervals... More about our weather records

Advertising

Merida Weather History for the Previous 24 Hours

Scroll right to see more
 ConditionsComfort  
Time TempWeatherWind HumidityBarometerVisibility
11:44 am
Mon, Jan 23
81 °FScattered clouds.18 mph45%30.00 "Hg7 mi
10:45 am79 °FScattered clouds.15 mph45%30.01 "Hg7 mi
9:46 am79 °FScattered clouds.9 mph48%30.01 "Hg7 mi
8:44 am75 °FSunny.13 mph57%29.98 "Hg7 mi
7:47 am68 °FPassing clouds.5 mph73%29.97 "Hg7 mi
6:48 am63 °FScattered clouds.No wind77%29.95 "Hg7 mi
5:48 am63 °FPassing clouds.5 mph77%29.93 "Hg7 mi
4:48 am63 °FClear.5 mph77%29.92 "Hg7 mi
3:48 am64 °FClear.6 mph73%29.91 "Hg7 mi
2:48 am63 °FClear.6 mph77%29.92 "Hg7 mi
1:48 am64 °FClear.8 mph73%29.90 "Hg7 mi
12:48 am64 °FClear.7 mph78%29.90 "Hg7 mi
11:48 pm
Sun, Jan 22
66 °FClear.7 mph78%29.90 "Hg7 mi
10:48 pm68 °FClear.7 mph83%29.90 "Hg7 mi
9:48 pm70 °FClear.7 mph83%29.89 "Hg7 mi
8:46 pm73 °FClear.7 mph74%29.90 "Hg7 mi
7:45 pm75 °FPassing clouds.6 mph78%29.87 "Hg7 mi
6:45 pm77 °FPassing clouds.8 mph79%29.84 "Hg7 mi
5:47 pm81 °FPassing clouds.14 mph70%29.82 "Hg7 mi
4:46 pm82 °FPassing clouds.20 mph62%29.78 "Hg7 mi
3:45 pm86 °FScattered clouds.21 mph52%29.75 "Hg7 mi
2:44 pm91 °FPassing clouds.23 mph38%29.72 "Hg7 mi
1:41 pm95 °FSunny.16 mph36%29.71 "Hg7 mi
Weather by CustomWeather, © 2017

See weather overviewHow to use our weather pages